SATCOM 3 DEB, 29004

Orbit data source: Space-Track

SATCOM 3 DEB, 29004 is space debris in HEO originally from a launch on Fri, 07 Dec 1979 UTC launched from the Air Force Eastern Test Range (AFETR). Debris objects in space refer to the collection of defunct objects orbiting the Earth. Examples of debris include non-operational satellites, rocket bodies, and fragments generated from explosions, collisions, or faulty payload assembly.

Not visible in the next 10 days
Identifier
29004, 1979-101G
Orbit
HEO
Country
Flag of USUS
Related business
Manufacturer
Unknown
Mission
Spacecraft
Bus & Motor
Unknown
Mass
Unknown
Launch date (UTC)
1979-12-07 (47 years ago)
Launch vehicle
Unknown
Launch site
Air Force Eastern Test Range (AFETR)
Object type
Payload
Rocket body
Debris
Shape & HBR
Unknown shape, 1.1 m
Radar Cross Section
Medium (>0.1 m² and <1 m²)

Expand to show TLE details & history
Last TLE update: 1 day ago

TLE from 1 day ago
0 SATCOM 3 DEB
1 29004U 79101G   26167.97464670 -.00000100  00000-0  00000-0 0  9990
2 29004   8.4237  87.7435 4819173  97.1343  34.2398  1.81212062134757
Epoch: 2026-06-16T23:23Z
TLE epoch observation values (Epoch: 2026-06-16T23:23:29.474Z)
Latitude
-0.4293°
Longitude
14.31284°
Altitude
14,686.737 km
Speed
4.881 km/s
True Right ascension
18h 01m 41s
True Declination
0° 25' 42"
Sunlit
Object was in daylight at epoch
Visualization orbit readout
Latitude
Unknown
Longitude
Unknown
Altitude
Unknown
Speed
Unknown
Apparent Right ascension
Unknown
Apparent Declination
Unknown
Sunlit
N/A
Visualization observer readout
Local Sidereal Time
12:53:49
Azimuth
Unknown
Elevation
Unknown
Doppler factor
Unknown
Orbital elements
Apogee altitude
35,739.96 km
Perigee altitude
8,346.475 km
Semi-major axis
28,421.355 km
Eccentricity
0.48192
Inclination
8.4237°
RAAN
87.7435°
Arg. of periapsis
97.1343°
True anomaly
85.75777°
Mean anomaly
34.2398°
Eccentric anomaly
57.53694°
Mean motion
0.45298 °/min
Orbital period
794.74 mins
BSTAR
0
Loading maneuver chart data...
Computing Atmospheric mass density...
Loading historical data...
Loading historical data...
Loading historical data...
Loading historical data...
Loading historical data...
Loading historical data...
Loading historical data...

Documentation

Showing up to 5 results
|